Regional Weather Roundup
Issued by NWS

Home | Current Version | Previous Version | Graphics & Text | Print | Product List | Glossary On
Versions: 1 2 3 4 5 6 7 8 9 10 11 12 13 14 15 16 17 18 19 20 21 22 23 24 25 26 27 28 29 30 31 32 33 34 35 36 37 38 39 40 41 42 43 44 45 46 47 48 49 50
000
ASUS43 KDTX 090610
RWRMI
MICHIGAN HOURLY REGIONAL WEATHER ROUNDUP
NATIONAL WEATHER SERVICE DETROIT/PONTIAC MI
100 AM EST FRI DEC 09 2016

NOTE: "FAIR" INDICATES FEW OR NO CLOUDS BELOW 12,000 FEET WITH NO
SIGNIFICANT WEATHER AND/OR OBSTRUCTION TO VISIBILITY.

MIZ047>049-052>055-059>063-066>070-074>076-081>083-090700-
SOUTHEAST LOWER MICHIGAN

CITY           SKY/WX    TMP DP  RH WIND       PRES   REMARKS
ADRIAN         CLOUDY    23  19  85 W14       30.29S WCI  11
6HR MIN TEMP:  21; 6HR MAX TEMP:  23; 6HR PCP: TRACE;

ALMA           CLOUDY    27  25  91 W6        30.24S WCI  21
ANN ARBOR      CLOUDY    25  21  85 SW13      30.25R WCI  14
BAD AXE        CLEAR     26  18  74 NW7       30.17S WCI  18
CARO           CLEAR     24  22  93 W6        30.20S WCI  17
DETROIT CITY   CLOUDY    26  22  84 W10       30.24R WCI  16
6HR MIN TEMP:  26; 6HR MAX TEMP:  28; 6HR PCP: TRACE;

DETROIT        FLURRIES  26  22  84 W13       30.26S WCI  15
6HR MIN TEMP:  25; 6HR MAX TEMP:  26; 6HR PCP: TRACE;

FLINT          MOCLDY    27  24  89 W9        30.23R WCI  18
6HR MIN TEMP:  25; 6HR MAX TEMP:  28; 6HR PCP: TRACE;

GROSSE ILE     CLOUDY    25  20  82 W12G17    30.25S WCI  15
6HR MIN TEMP:  24; 6HR MAX TEMP:  25;

HILLSDALE      CLOUDY    21  19  93 W9G16     30.26S WCI  11
HOWELL         CLOUDY    28  24  86 W9        30.23R WCI  19
6HR MIN TEMP:  26; 6HR MAX TEMP:  28;


CITY           SKY/WX    TMP DP  RH WIND       PRES   REMARKS
JACKSON        LGT SNOW  23  20  88 W13       30.26R FOG     WCI  11
6HR MIN TEMP:  23; 6HR MAX TEMP:  24; 6HR PCP:  0.01;

LAMBERTVILLE   CLOUDY    25  19  78 W10G18    30.29S WCI  15
6HR MIN TEMP:  23; 6HR MAX TEMP:  25;

LANSING        LGT SNOW  27  23  85 W9        30.25S FOG     WCI  18
6HR MIN TEMP:  26; 6HR MAX TEMP:  27; 6HR PCP:  0.02;

LAPEER         NOT AVBL
MASON          FLURRIES  26  24  92 W5        30.25R WCI  21
MONROE         CLOUDY    24  21  85 W14G20    30.27S WCI  12
6HR MIN TEMP:  24; 6HR MAX TEMP:  24;

MT. CLEMENS    MOCLDY    28  23  80 W6        30.20R WCI  22
6HR MIN TEMP:  27; 6HR MAX TEMP:  29; 6HR PCP: TRACE;

PONTIAC        MOCLDY    27  22  81 W10       30.20R WCI  17
6HR MIN TEMP:  26; 6HR MAX TEMP:  27; 6HR PCP: TRACE;

PORT HOPE        N/A     29  20  69 NW20G28   30.14R WCI  16
6HR MIN TEMP:  29; 6HR MAX TEMP:  32;

PORT HURON     CLEAR     27  23  86 W7        30.20R WCI  19
TRI CITIES     PTCLDY    23  21  92 W9        30.23R WCI  13
6HR MIN TEMP:  22; 6HR MAX TEMP:  29; 6HR PCP: TRACE;

MIDLAND        CLOUDY    27  22  81 W3        30.22S
6HR MIN TEMP:  26; 6HR MAX TEMP:  30;

TROY           CLOUDY    30  24  79 W9        30.24R WCI  21
SAGINAW HB     MOCLDY    28  23  80 W8        30.22R WCI  20
$$
MIZ043>046-050>051-056>058-064>065-071>073-077>080-090700-
SOUTHWEST LOWER MICHIGAN

CITY           SKY/WX    TMP DP  RH WIND       PRES   REMARKS
BATTLE CREEK   LGT SNOW  26  24  92 W13       30.27S FOG     WCI  15
6HR MIN TEMP:  24; 6HR MAX TEMP:  26; 6HR PCP: TRACE;

BENTON HARBOR  CLOUDY    30  19  63 W16       30.34S WCI  19
6HR MIN TEMP:  29; 6HR MAX TEMP:  30; 6HR PCP:  0.01;

BIG RAPIDS     LGT SNOW  27  24  89 W6        30.22S WCI  20
6HR MIN TEMP:  25; 6HR MAX TEMP:  28;

COLDWATER      CLOUDY    23  20  89 W9G16     30.30S WCI  13
6HR MIN TEMP:  21; 6HR MAX TEMP:  23;

FREMONT        LGT SNOW  27  25  93 N13       30.26R WCI  16
6HR MIN TEMP:  27; 6HR MAX TEMP:  29;

HOLLAND        LGT SNOW  31  25  78 NW7       30.28S WCI  24
6HR MIN TEMP:  29; 6HR MAX TEMP:  32; 6HR PCP:  0.03;

GRAND RAPIDS   FLURRIES  29  24  82 NW7       30.27R WCI  22
6HR MIN TEMP:  27; 6HR MAX TEMP:  29; 6HR PCP: TRACE;

IONIA          FLURRIES  27  26  96 W7        30.25S WCI  19
6HR MIN TEMP:  24; 6HR MAX TEMP:  28; 6HR PCP:  0.01;

KALAMAZOO      CLOUDY    27  22  81 W10       30.29R WCI  17
6HR MIN TEMP:  25; 6HR MAX TEMP:  27; 6HR PCP: TRACE;

LUDINGTON      CLOUDY    29  20  67 NW9G17    30.27R WCI  21
6HR MIN TEMP:  28; 6HR MAX TEMP:  31;

MARSHALL       LGT SNOW  23  21  92 SW7       30.27S WCI  15
6HR MIN TEMP:  23; 6HR MAX TEMP:  25;

MOUNT PLEASANT MOCLDY    25  22  89 W5        30.22S WCI  19
6HR MIN TEMP:  24; 6HR MAX TEMP:  28;

MUSKEGON       CLOUDY    32  22  66 NW14      30.28R WCI  22
6HR MIN TEMP:  32; 6HR MAX TEMP:  33; 6HR PCP:  0.02;

SOUTH HAVEN    LGT SNOW  29  27  90 W13G18    30.31R VSB 1   WCI  19
$$
MIZ016>042-090700-
NORTHERN LOWER MICHIGAN

CITY           SKY/WX    TMP DP  RH WIND       PRES   REMARKS
ALPENA         CLOUDY    24  20  84 NW3       30.18R
6HR MIN TEMP:  24; 6HR MAX TEMP:  26; 6HR PCP:  0.03;

BEAVER ISLAND  CLOUDY    27  19  72 N8G16     30.22R WCI  18
6HR MIN TEMP:  27; 6HR MAX TEMP:  29;

BELLAIRE       FLURRIES  28  23  82 N5        30.21S WCI  22
6HR MIN TEMP:  27; 6HR MAX TEMP:  30;

CADILLAC       FLURRIES  22  19  87 W5        30.19R WCI  15
CHARLEVOIX     LGT SNOW  28  23  81 NW14G21   30.22R WCI  17
6HR MIN TEMP:  28; 6HR MAX TEMP:  31;

FRANKFORT      CLOUDY    29  17  60 NW15G24   30.26R WCI  18
GAYLORD        LGT SNOW  24  19  81 CALM      30.15R
6HR MIN TEMP:  24; 6HR MAX TEMP:  26; 6HR PCP:  0.04;

GRAYLING       LGT SNOW  25  22  89 W5        30.17R VSB 1   WCI  19
6HR MIN TEMP:  21; 6HR MAX TEMP:  26;

HARBOR SPRINGS LGT SNOW  25  22  87 N3        30.19R
HOUGHTON LAKE  LGT SNOW  24  22  91 NW6       30.18S FOG     WCI  17
6HR MIN TEMP:  21; 6HR MAX TEMP:  25; 6HR PCP:  0.04;

MANISTEE       MOCLDY    30  18  60 NW14G21   30.26R WCI  19
OSCODA         MOCLDY    24  20  85 MISG      30.17R
6HR MIN TEMP:  21; 6HR MAX TEMP:  28;

PELLSTON       CLOUDY    23  17  78 N9        30.20R WCI  13
6HR MIN TEMP:  23; 6HR MAX TEMP:  28; 6HR PCP:  0.01;

ROGERS CITY    CLOUDY    26  15  62 N9        30.19R WCI  17
TRAVERSE CITY  MOCLDY    27  15  61 W12       30.22R WCI  17
6HR MIN TEMP:  27; 6HR MAX TEMP:  31; 6HR PCP:  0.01;

$$
MIZ007>008-015-090700-
EASTERN UPPER MICHIGAN

CITY           SKY/WX    TMP DP  RH WIND       PRES   REMARKS
KINROSS        CLOUDY    19  12  74 CALM      30.19R
6HR MIN TEMP:  18; 6HR MAX TEMP:  25; 6HR PCP:  0.01;

MACKINAC ISLAN CLOUDY    22  11  62 NE14      30.20R WCI   9
6HR MIN TEMP:  22; 6HR MAX TEMP:  26;

NEWBERRY       LGT SNOW  20  17  86 N3        30.19S
6HR MIN TEMP:  20; 6HR MAX TEMP:  26;

S. S. MARIE    MOCLDY    20  11  68 N5        30.18R WCI  13
6HR MIN TEMP:  20; 6HR MAX TEMP:  26;

MUNISING         N/A     28  21  75 N10       30.23R WCI  19
6HR MIN TEMP:  26; 6HR MAX TEMP:  31; 6HR PCP:  0.05;

$$
MIZ004>006-011>014-085-090700-
CENTRAL UPPER MICHIGAN

CITY           SKY/WX    TMP DP  RH WIND       PRES   REMARKS
MANISTIQUE     FLURRIES  22  21  98 W5        30.23S WCI  16
6HR MIN TEMP:  22; 6HR MAX TEMP:  25;

ESCANABA       PTCLDY    21  15  78 W10       30.28R WCI  10
6HR MIN TEMP:  21; 6HR MAX TEMP:  27;

MENOMINEE      CLEAR     23  15  71 VRB7      30.33R WCI  15
6HR MIN TEMP:  23; 6HR MAX TEMP:  28;

SAWYER-GWINN   CLEAR     16  13  88 W8        30.24S WCI   5
6HR MIN TEMP:  16; 6HR MAX TEMP:  23;

$$
MIZ001>003-009>011-084-090700-
WESTERN UPPER MICHIGAN

CITY           SKY/WX    TMP DP  RH WIND       PRES   REMARKS
IRON MOUNTAIN  PTCLDY    19  11  70 NW10      30.28R WCI   7
6HR MIN TEMP:  19; 6HR MAX TEMP:  24; 6HR PCP: TRACE;

HOUGHTON       LGT SNOW  20  15  81 NW12      30.27S WCI   8
6HR MIN TEMP:  18; 6HR MAX TEMP:  22; 6HR PCP:  0.03;

COPPER HARBOR    N/A     26  19  74 NE21G28   30.27S WCI  12
6HR MIN TEMP:  25; 6HR MAX TEMP:  27;

IRONWOOD       FLURRIES  19  12  74 N10G18    30.35R WCI   7
6HR MIN TEMP:  19; 6HR MAX TEMP:  23; 6HR PCP:  0.01;

$$

ABBREVIATIONS USED IN REMARKS
   TC - TEMPERATURE IN CELSIUS
  WCI - WIND CHILL INDEX
   HX - HEAT INDEX
  VSB - VISIBILITY





USA.gov is the U.S. government's official web portal to all federal, state and local government web resources and services.